Back to catalog

STARLINK-32945

AliveCommunicationsVLEO
NORAD 63118·PAYLOAD·🇺🇸 United States

Launched Feb 27, 2025 from Cape Canaveral Space Force Station

Loading…

Next Passes (next 24 hours)

TLE

FreshSource: CelesTrak SupGP

Epoch: Sep 14, 2026, 14:39 UTC

1 63118C 25039Q   26257.61090278 -.00055227  00000+0 -20005-2 0  2571
2 63118  43.0043  25.6911 0001934 274.5679  15.7242 15.27601610    17

Track STARLINK-32945 in real time with AllMySat

Download on the App Store